TimeCDT,TemperatureF,Dew PointF,Humidity,Sea Level PressureIn,VisibilityMPH,Wind Direction,Wind SpeedMPH,Gust SpeedMPH,PrecipitationIn,Events,Conditions,WindDirDegrees,DateUTC
12:55 AM,45.3,33.6,64,30.35,10.0,NNE,6.9,-,N/A,,Overcast,20,2012-10-07 05:55:00
1:55 AM,44.8,33.4,64,30.35,10.0,NNE,10.4,-,N/A,,Partly Cloudy,30,2012-10-07 06:55:00
2:55 AM,44.2,32.4,63,30.35,10.0,NNE,10.4,-,N/A,,Clear,30,2012-10-07 07:55:00
3:55 AM,43.9,33.1,66,30.35,10.0,NNE,6.9,-,N/A,,Partly Cloudy,20,2012-10-07 08:55:00
4:55 AM,43.3,33.1,67,30.34,10.0,NNE,10.4,-,N/A,,Partly Cloudy,30,2012-10-07 09:55:00
5:03 AM,42.8,33.8,70,30.33,10.0,NE,11.5,-,N/A,,Light Drizzle,40,2012-10-07 10:03:00
5:12 AM,42.8,33.8,70,30.35,10.0,NNE,6.9,-,N/A,,Clear,20,2012-10-07 10:12:00
5:55 AM,43.3,32.2,65,30.35,10.0,NNE,8.1,-,0.00,,Partly Cloudy,20,2012-10-07 10:55:00
6:13 AM,42.8,32.0,66,30.35,10.0,NNE,6.9,-,N/A,,Clear,30,2012-10-07 11:13:00
6:36 AM,42.8,33.8,70,30.31,10.0,ENE,9.2,-,N/A,,Clear,60,2012-10-07 11:36:00
6:47 AM,42.8,33.8,70,30.34,10.0,NE,4.6,-,N/A,Rain,Light Rain,40,2012-10-07 11:47:00
6:55 AM,42.8,33.4,70,30.33,10.0,NE,5.8,-,0.00,Rain,Light Rain,50,2012-10-07 11:55:00
6:59 AM,42.8,33.8,70,30.32,10.0,ENE,6.9,-,N/A,,Scattered Clouds,60,2012-10-07 11:59:00
7:55 AM,42.1,33.4,71,30.35,10.0,NNE,6.9,-,0.00,,Partly Cloudy,30,2012-10-07 12:55:00
8:55 AM,43.0,33.3,69,30.35,10.0,NNE,9.2,-,N/A,,Mostly Cloudy,20,2012-10-07 13:55:00
9:55 AM,43.9,32.9,65,30.36,10.0,ENE,6.9,-,N/A,,Mostly Cloudy,70,2012-10-07 14:55:00
10:55 AM,47.7,31.3,53,30.35,10.0,East,8.1,-,N/A,,Scattered Clouds,80,2012-10-07 15:55:00
11:55 AM,50.2,28.0,42,30.33,10.0,Calm,Calm,-,N/A,,Overcast,0,2012-10-07 16:55:00
12:55 PM,52.7,28.4,39,30.32,10.0,Variable,3.5,-,N/A,,Overcast,0,2012-10-07 17:55:00
1:55 PM,52.2,27.1,38,30.29,10.0,Variable,3.5,-,N/A,,Overcast,0,2012-10-07 18:55:00
2:55 PM,52.2,26.4,37,30.27,10.0,Variable,3.5,-,N/A,,Overcast,0,2012-10-07 19:55:00
3:07 PM,51.8,26.6,38,30.26,10.0,Calm,Calm,-,N/A,,Overcast,0,2012-10-07 20:07:00
3:35 PM,51.8,28.4,41,30.25,10.0,Calm,Calm,-,N/A,,Overcast,0,2012-10-07 20:35:00
3:55 PM,53.1,28.8,39,30.25,10.0,Variable,5.8,-,N/A,,Overcast,0,2012-10-07 20:55:00
4:55 PM,50.9,28.6,42,30.24,10.0,NE,9.2,-,N/A,,Overcast,40,2012-10-07 21:55:00
5:55 PM,50.0,28.6,44,30.24,10.0,NNE,10.4,-,N/A,,Scattered Clouds,20,2012-10-07 22:55:00
6:55 PM,49.3,28.6,45,30.23,10.0,NNE,4.6,-,N/A,,Overcast,30,2012-10-07 23:55:00
7:55 PM,48.7,29.8,48,30.24,10.0,NNE,4.6,-,N/A,,Overcast,30,2012-10-08 00:55:00
8:55 PM,44.8,32.2,61,30.25,10.0,NNE,4.6,-,N/A,,Scattered Clouds,30,2012-10-08 01:55:00
9:55 PM,43.2,32.0,65,30.26,10.0,Calm,Calm,-,N/A,,Clear,0,2012-10-08 02:55:00
10:55 PM,41.4,31.5,68,30.26,10.0,Calm,Calm,-,N/A,,Clear,0,2012-10-08 03:55:00
11:55 PM,39.7,32.2,74,30.24,10.0,Calm,Calm,-,N/A,,Clear,0,2012-10-08 04:55:00